Marshalltown, IA

3:21 AM CST on February 10, 2016 (GMT -0600)
Marshalltown Municipal

Weather History for KMIW - June, 2014

Change the Weather History Date:

Friday, June 20, 2014

  Actual Average Record
Temperature  
Mean Temperature 76 °F 71 °F  
Max Temperature 87 °F 81 °F 91 °F (2012)
Min Temperature 64 °F 60 °F 48 °F (2003)
Degree Days  
Heating Degree Days 0 1  
Month to date heating degree days 7 26  
Since 1 June heating degree days 7 26  
Since 1 July heating degree days 7939 7010  
Cooling Degree Days 11 6  
Month to date cooling degree days 99 93  
Year to date cooling degree days 178 143  
Since 1 June cooling degree days 99 93  
Growing Degree Days 26 (Base 50)    
Moisture  
Dew Point 64 °F    
Average Humidity 67    
Maximum Humidity 100    
Minimum Humidity 34    
Precipitation  
Precipitation 0.00 in 0.18 in 1.06 in (2011)
Month to date precipitation 4.27 3.51  
Sea Level Pressure  
Sea Level Pressure 29.96 in    
Wind  
Wind Speed 5 mph (SW)    
Max Wind Speed 10 mph    
Max Gust Speed 14 mph    
Visibility 10 miles    
Events      
T = Trace of Precipitation, MM = Missing Value Source: NWS Daily Summary

Daily Weather History Graph

Daily Weather History Graph

Search for Another Location

Airport or City:

Trip Planner

Search our weather history database for the weather conditions in past years. The results will help you decide how hot, cold, wet, or windy it might be!

Date:

Astronomy

Jun. 20, 2014 Rise Set
Actual Time 5:35 AM CDT 8:50 PM CDT
Civil Twilight 5:01 AM CDT 9:25 PM CDT
Nautical Twilight 4:16 AM CDT 10:10 PM CDT
Astronomical Twilight 3:22 AM CDT 11:04 PM CDT
Moon 1:20 AM CDT (6/20) 2:20 PM CDT (6/20)
Length of Visible Light 16h 24m
Length of Day
15h 15m
Last Quarter, 40% of the Moon is Illuminated
Jun 20
Last Quarter
Jun 27
New
Jul 5
First Quarter
Jul 12
Full
Jul 18
Last Quarter

Hourly Weather History & Observations

Time (CDT) Temp. Heat Index Dew Point Humidity Pressure Visibility Wind Dir Wind Speed Gust Speed Precip Events Conditions
12:53 AM 66.0 °F - 64.9 °F 96% 29.96 in 10.0 mi Calm Calm - N/A   Overcast
1:01 AM 66.0 °F - 64.9 °F 96% 29.97 in 10.0 mi Calm Calm - N/A   Overcast
1:13 AM 66.0 °F - 64.9 °F 96% 29.97 in 10.0 mi Calm Calm - N/A   Overcast
1:38 AM 66.0 °F - 64.9 °F 96% 29.97 in 10.0 mi South 5.8 mph - N/A   Overcast
1:50 AM 66.2 °F - 64.4 °F 94% 29.97 in 10.0 mi SW 5.8 mph - N/A   Overcast
1:53 AM 66.0 °F - 64.9 °F 96% 29.96 in 10.0 mi SSW 5.8 mph - N/A   Overcast
2:53 AM 64.9 °F - 64.9 °F 100% 29.96 in 10.0 mi SW 5.8 mph - N/A   Overcast
3:53 AM 64.9 °F - 64.9 °F 100% 29.96 in 8.0 mi SW 4.6 mph - N/A   Overcast
4:53 AM 64.9 °F - 64.0 °F 97% 29.97 in 10.0 mi WSW 4.6 mph - N/A   Overcast
5:53 AM 64.0 °F - 64.0 °F 100% 29.97 in 10.0 mi SW 4.6 mph - N/A   Overcast
6:53 AM 64.0 °F - 64.0 °F 100% 29.98 in 10.0 mi WSW 4.6 mph - N/A   Overcast
7:53 AM 64.9 °F - 64.9 °F 100% 29.99 in 10.0 mi Calm Calm - N/A   Overcast
8:53 AM 68.0 °F - 66.9 °F 96% 29.99 in 10.0 mi Variable 3.5 mph - N/A   Overcast
9:48 AM 69.8 °F - 69.8 °F 100% 30.01 in 10.0 mi West 5.8 mph - N/A   Overcast
9:53 AM 70.0 °F - 69.1 °F 97% 30.00 in 10.0 mi West 5.8 mph - N/A   Overcast
10:13 AM 71.1 °F - 70.0 °F 96% 30.01 in 10.0 mi West 5.8 mph - N/A   Mostly Cloudy
10:28 AM 73.0 °F - 71.1 °F 93% 30.00 in 10.0 mi West 5.8 mph - N/A   Partly Cloudy
10:53 AM 78.1 °F - 73.0 °F 84% 29.99 in 10.0 mi WSW 5.8 mph - N/A   Clear
11:53 AM 82.0 °F 85.5 °F 69.1 °F 65% 29.99 in 10.0 mi WNW 8.1 mph - N/A   Clear
12:53 PM 84.0 °F 84.4 °F 61.0 °F 46% 29.99 in 10.0 mi WNW 6.9 mph - N/A   Clear
1:53 PM 86.0 °F 84.7 °F 55.9 °F 36% 29.96 in 10.0 mi Calm Calm - N/A   Clear
2:53 PM 86.0 °F 84.5 °F 55.0 °F 35% 29.95 in 10.0 mi SW 4.6 mph - N/A   Clear
3:53 PM 87.1 °F 85.7 °F 55.9 °F 35% 29.94 in 10.0 mi South 4.6 mph - N/A   Clear
4:53 PM 86.0 °F 85.0 °F 57.9 °F 38% 29.92 in 10.0 mi SSW 5.8 mph - N/A   Clear
5:53 PM 84.9 °F 84.8 °F 60.1 °F 43% 29.92 in 10.0 mi SW 6.9 mph - N/A   Clear
6:53 PM 82.0 °F 83.4 °F 64.0 °F 54% 29.91 in 10.0 mi SSW 4.6 mph - N/A   Clear
7:53 PM 79.0 °F - 66.0 °F 64% 29.91 in 10.0 mi South 5.8 mph - N/A   Clear
8:53 PM 78.1 °F - 64.0 °F 62% 29.91 in 10.0 mi SSE 5.8 mph - N/A   Clear
9:53 PM 75.9 °F - 64.0 °F 67% 29.89 in 10.0 mi SSE 8.1 mph - N/A   Clear
10:53 PM 75.9 °F - 63.0 °F 64% 29.90 in 10.0 mi SSE 6.9 mph - N/A   Clear
11:53 PM 73.9 °F - 64.0 °F 71% 29.87 in 10.0 mi SSE 8.1 mph - N/A   Clear